timestamp,wind_dir_avg,wind_spd_avg,wind_spd_max_dir,wind_spd_gust,battery_voltage,lat,long
2023-10-04 00:04:00+00:00,255.0,5.51,254.0,6.04,12.41,47.59359,-54.27349
2023-10-04 00:14:01+00:00,260.0,4.89,261.0,5.66,12.41,47.59359,-54.27349
2023-10-04 00:24:01+00:00,281.0,3.66,282.0,4.13,12.41,47.59359,-54.27349
2023-10-04 00:34:01+00:00,299.0,4.78,299.0,5.71,12.41,47.59359,-54.27349
2023-10-04 00:44:01+00:00,305.0,5.76,311.0,6.58,12.41,47.59359,-54.27349
2023-10-04 00:54:01+00:00,305.0,6.72,306.0,7.73,12.41,47.59359,-54.27349
2023-10-04 01:04:01+00:00,299.0,5.8,297.0,6.63,12.41,47.59359,-54.27349
2023-10-04 01:14:00+00:00,305.0,4.94,305.0,5.52,12.41,47.59359,-54.27349
2023-10-04 01:24:00+00:00,353.0,11.43,348.0,14.77,12.41,47.59359,-54.27349
2023-10-04 01:34:00+00:00,15.0,10.49,14.0,11.96,12.41,47.59359,-54.27349
2023-10-04 01:44:00+00:00,20.0,9.29,22.0,10.47,12.41,47.59359,-54.27349
2023-10-04 01:54:00+00:00,25.0,9.6,28.0,10.94,12.41,47.59359,-54.27349
2023-10-04 02:04:00+00:00,15.0,11.14,15.0,13.68,12.41,47.59359,-54.27349
2023-10-04 02:14:00+00:00,20.0,11.11,18.0,12.85,12.41,47.59359,-54.27349
2023-10-04 02:24:00+00:00,28.0,12.7,29.0,15.11,12.41,47.59359,-54.27349
2023-10-04 02:34:00+00:00,25.0,10.87,17.0,12.71,12.41,47.59359,-54.27349
2023-10-04 02:44:00+00:00,26.0,10.69,16.0,13.12,12.41,47.59359,-54.27349
2023-10-04 02:54:00+00:00,25.0,11.37,23.0,12.83,12.41,47.59359,-54.27349
2023-10-04 03:04:00+00:00,24.0,11.07,22.0,12.15,12.41,47.59359,-54.27349
2023-10-04 03:14:01+00:00,29.0,10.84,33.0,11.83,12.33,47.59359,-54.27349
2023-10-04 03:24:01+00:00,21.0,9.45,16.0,10.57,12.33,47.59359,-54.27349
2023-10-04 03:34:01+00:00,21.0,9.88,18.0,11.69,12.33,47.59359,-54.27349
2023-10-04 03:44:01+00:00,22.0,10.84,25.0,12.21,12.33,47.59359,-54.27349
2023-10-04 03:54:01+00:00,19.0,10.57,16.0,12.44,12.33,47.59359,-54.27349
2023-10-04 04:04:01+00:00,30.0,10.64,36.0,12.62,12.33,47.59359,-54.27349
2023-10-04 04:14:00+00:00,16.0,10.14,15.0,10.98,12.33,47.59359,-54.27349
2023-10-04 04:24:00+00:00,13.0,10.37,16.0,11.92,12.33,47.59359,-54.27349
2023-10-04 04:34:00+00:00,11.0,9.73,13.0,11.35,12.33,47.59359,-54.27349
2023-10-04 04:44:00+00:00,15.0,11.11,12.0,12.54,12.33,47.59359,-54.27349
2023-10-04 04:54:00+00:00,33.0,10.64,37.0,12.36,12.33,47.59359,-54.27349
2023-10-04 05:04:00+00:00,23.0,11.35,26.0,12.83,12.33,47.59359,-54.27349
2023-10-04 05:14:00+00:00,17.0,11.45,16.0,13.15,12.33,47.59359,-54.27349
2023-10-04 05:24:00+00:00,17.0,10.68,20.0,11.82,12.33,47.59359,-54.27349
2023-10-04 05:34:00+00:00,14.0,9.48,15.0,10.66,12.33,47.59359,-54.27349
2023-10-04 05:44:00+00:00,17.0,10.06,20.0,11.01,12.33,47.59359,-54.27349
2023-10-04 05:54:00+00:00,22.0,10.01,26.0,12.64,12.33,47.59359,-54.27349
2023-10-04 06:04:00+00:00,39.0,9.47,42.0,10.58,12.33,47.59359,-54.27349
2023-10-04 06:14:00+00:00,25.0,9.55,18.0,11.45,12.25,47.59359,-54.27349
2023-10-04 06:24:00+00:00,19.0,8.71,20.0,9.79,12.25,47.59359,-54.27349
2023-10-04 06:34:00+00:00,22.0,8.11,18.0,9.55,12.25,47.59359,-54.27349
2023-10-04 06:44:00+00:00,17.0,8.11,11.0,9.69,12.25,47.59359,-54.27349
2023-10-04 06:54:00+00:00,18.0,9.37,17.0,11.03,12.25,47.59359,-54.27349
2023-10-04 07:04:00+00:00,2.0,9.34,358.0,10.75,12.25,47.59359,-54.27349
2023-10-04 07:14:00+00:00,15.0,10.07,18.0,11.92,12.25,47.59359,-54.27349
2023-10-04 07:24:00+00:00,14.0,10.39,13.0,12.29,12.25,47.59359,-54.27349
2023-10-04 07:34:00+00:00,13.0,9.93,14.0,11.42,12.25,47.59359,-54.27349
2023-10-04 07:44:00+00:00,10.0,7.95,16.0,10.1,12.25,47.59359,-54.27349
2023-10-04 07:54:00+00:00,18.0,8.63,21.0,10.37,12.25,47.59359,-54.27349
2023-10-04 08:04:00+00:00,15.0,7.28,19.0,8.73,12.25,47.59359,-54.27349
2023-10-04 08:14:00+00:00,19.0,9.22,19.0,10.56,12.17,47.59359,-54.27349
2023-10-04 08:24:00+00:00,20.0,9.92,15.0,10.98,12.17,47.59359,-54.27349
2023-10-04 08:34:00+00:00,18.0,8.15,15.0,9.57,12.17,47.59359,-54.27349
2023-10-04 08:44:00+00:00,25.0,9.63,32.0,11.74,12.17,47.59359,-54.27349
2023-10-04 08:54:00+00:00,22.0,9.01,25.0,10.3,12.17,47.59359,-54.27349
2023-10-04 09:04:00+00:00,14.0,8.95,16.0,10.28,12.17,47.59359,-54.27349
2023-10-04 09:14:00+00:00,4.0,8.41,2.0,10.33,12.09,47.59359,-54.27349
2023-10-04 09:24:00+00:00,18.0,7.9,16.0,9.14,12.09,47.59359,-54.27349
2023-10-04 09:34:00+00:00,10.0,8.09,4.0,9.98,12.09,47.59359,-54.27349
2023-10-04 09:44:00+00:00,5.0,8.7,0.0,10.2,12.09,47.59359,-54.27349
2023-10-04 09:54:00+00:00,1.0,9.94,2.0,11.4,12.09,47.59359,-54.27349
2023-10-04 10:04:00+00:00,6.0,7.51,2.0,8.93,12.09,47.59359,-54.27349
2023-10-04 10:14:01+00:00,8.0,7.9,16.0,9.77,12.49,47.59359,-54.27349
2023-10-04 10:24:01+00:00,8.0,7.81,2.0,9.0,12.49,47.59359,-54.27349
2023-10-04 10:34:01+00:00,22.0,6.68,20.0,8.05,12.49,47.59359,-54.27349
2023-10-04 10:44:01+00:00,28.0,7.21,33.0,8.52,12.49,47.59359,-54.27349
2023-10-04 10:54:01+00:00,22.0,7.24,12.0,9.07,12.49,47.59359,-54.27349
2023-10-04 11:04:01+00:00,25.0,7.4,27.0,8.99,12.49,47.59359,-54.27349
2023-10-04 11:14:01+00:00,23.0,7.24,15.0,9.67,14.0,47.59359,-54.27349
2023-10-04 11:24:01+00:00,15.0,7.92,15.0,8.84,14.0,47.59359,-54.27349
2023-10-04 11:34:01+00:00,19.0,6.89,20.0,7.88,14.0,47.59359,-54.27349
2023-10-04 11:44:01+00:00,5.0,8.23,0.0,9.43,14.0,47.59359,-54.27349
2023-10-04 11:54:01+00:00,13.0,7.92,15.0,8.96,14.0,47.59359,-54.27349
2023-10-04 12:04:01+00:00,4.0,6.22,1.0,7.89,14.0,47.59359,-54.27349
2023-10-04 12:14:01+00:00,3.0,7.32,5.0,8.21,14.4,47.59359,-54.27349
2023-10-04 12:24:01+00:00,14.0,5.37,16.0,6.26,14.4,47.59359,-54.27349
2023-10-04 12:34:01+00:00,17.0,7.25,17.0,8.43,14.4,47.59359,-54.27349
2023-10-04 12:44:01+00:00,17.0,6.58,18.0,7.97,14.4,47.59359,-54.27349
2023-10-04 12:54:01+00:00,22.0,6.87,23.0,7.72,14.4,47.59359,-54.27349
2023-10-04 13:04:01+00:00,18.0,7.37,19.0,8.58,14.4,47.59359,-54.27349
2023-10-04 13:14:01+00:00,20.0,6.94,21.0,8.09,14.0,47.59359,-54.27349
2023-10-04 13:24:01+00:00,20.0,6.87,20.0,7.93,14.0,47.59359,-54.27349
2023-10-04 13:34:01+00:00,15.0,8.36,18.0,9.28,14.0,47.59359,-54.27349
2023-10-04 13:44:01+00:00,2.0,7.83,0.0,9.09,14.0,47.59359,-54.27349
2023-10-04 13:54:01+00:00,9.0,4.73,8.0,5.55,14.0,47.59359,-54.27349
2023-10-04 14:04:01+00:00,1.0,5.85,2.0,7.06,14.0,47.59359,-54.27349
2023-10-04 14:14:01+00:00,13.0,6.48,12.0,7.82,13.6,47.59359,-54.27349
2023-10-04 14:24:01+00:00,3.0,6.86,3.0,7.69,13.6,47.59359,-54.27349
2023-10-04 14:34:01+00:00,358.0,10.49,359.0,12.02,13.6,47.59359,-54.27349
2023-10-04 14:44:01+00:00,14.0,7.36,18.0,8.14,13.6,47.59359,-54.27349
2023-10-04 14:54:01+00:00,23.0,5.92,21.0,7.29,13.6,47.59359,-54.27349
2023-10-04 15:04:01+00:00,21.0,5.78,23.0,7.09,13.6,47.59359,-54.27349
2023-10-04 15:14:00+00:00,12.0,5.6,17.0,7.1,13.68,47.59359,-54.27349
2023-10-04 15:24:00+00:00,356.0,6.09,357.0,6.78,13.68,47.59359,-54.27349
2023-10-04 15:34:00+00:00,347.0,5.39,334.0,6.58,13.68,47.59359,-54.27349
2023-10-04 15:44:00+00:00,345.0,7.38,351.0,7.89,13.68,47.59359,-54.27349
2023-10-04 15:54:00+00:00,342.0,7.25,334.0,8.45,13.68,47.59359,-54.27349
2023-10-04 16:04:00+00:00,338.0,6.77,339.0,8.04,13.68,47.59359,-54.27349
2023-10-04 16:14:01+00:00,345.0,10.19,350.0,11.94,13.6,47.59359,-54.27349
2023-10-04 16:24:01+00:00,21.0,9.87,22.0,11.1,13.6,47.59359,-54.27349
2023-10-04 16:34:01+00:00,23.0,7.57,18.0,9.44,13.6,47.59359,-54.27349
2023-10-04 16:44:01+00:00,19.0,9.11,14.0,10.43,13.6,47.59359,-54.27349
2023-10-04 16:54:01+00:00,2.0,7.45,7.0,8.79,13.6,47.59359,-54.27349
2023-10-04 17:04:01+00:00,350.0,4.94,350.0,5.66,13.6,47.59359,-54.27349
2023-10-04 17:14:00+00:00,341.0,5.29,347.0,7.04,13.68,47.59359,-54.27349
2023-10-04 17:24:00+00:00,14.0,9.09,14.0,10.7,13.68,47.59359,-54.27349
2023-10-04 17:34:00+00:00,16.0,7.04,22.0,7.92,13.68,47.59359,-54.27349
2023-10-04 17:44:00+00:00,0.0,6.72,3.0,8.35,13.68,47.59359,-54.27349
2023-10-04 17:54:00+00:00,21.0,12.86,24.0,15.69,13.68,47.59359,-54.27349
2023-10-04 18:04:00+00:00,19.0,10.74,19.0,11.86,13.68,47.59359,-54.27349
2023-10-04 18:14:00+00:00,20.0,8.93,20.0,10.14,13.68,47.59359,-54.27349
2023-10-04 18:24:00+00:00,23.0,10.97,26.0,13.23,13.68,47.59359,-54.27349
2023-10-04 18:34:00+00:00,10.0,8.49,4.0,10.08,13.68,47.59359,-54.27349
2023-10-04 18:44:00+00:00,1.0,8.98,2.0,9.97,13.68,47.59359,-54.27349
2023-10-04 18:54:00+00:00,1.0,8.36,8.0,9.35,13.68,47.59359,-54.27349
2023-10-04 19:04:00+00:00,13.0,7.4,0.0,9.23,13.68,47.59359,-54.27349
2023-10-04 19:14:01+00:00,19.0,8.77,18.0,9.65,13.53,47.59359,-54.27349
2023-10-04 19:24:01+00:00,26.0,11.14,28.0,12.56,13.53,47.59359,-54.27349
2023-10-04 19:34:01+00:00,18.0,8.89,16.0,9.95,13.53,47.59359,-54.27349
2023-10-04 19:44:01+00:00,14.0,7.67,17.0,9.43,13.53,47.59359,-54.27349
2023-10-04 19:54:01+00:00,20.0,8.33,16.0,9.76,13.53,47.59359,-54.27349
2023-10-04 20:04:01+00:00,6.0,8.59,2.0,9.74,13.53,47.59359,-54.27349
2023-10-04 20:14:00+00:00,1.0,10.55,357.0,11.92,13.44,47.59359,-54.27349
2023-10-04 20:24:00+00:00,20.0,10.97,20.0,11.82,13.44,47.59359,-54.27349
2023-10-04 20:34:00+00:00,20.0,8.65,15.0,11.22,13.44,47.59359,-54.27349
2023-10-04 20:44:00+00:00,13.0,8.37,16.0,9.65,13.44,47.59359,-54.27349
2023-10-04 20:54:00+00:00,9.0,7.69,4.0,9.54,13.44,47.59359,-54.27349
2023-10-04 21:04:00+00:00,6.0,9.36,2.0,10.98,13.44,47.59359,-54.27349
2023-10-04 21:14:00+00:00,14.0,8.83,13.0,9.93,13.05,47.59359,-54.27349
2023-10-04 21:24:00+00:00,20.0,8.82,19.0,10.48,13.05,47.59359,-54.27349
2023-10-04 21:34:00+00:00,13.0,9.09,14.0,11.39,13.05,47.59359,-54.27349
2023-10-04 21:44:00+00:00,17.0,10.13,16.0,11.59,13.05,47.59359,-54.27349
2023-10-04 21:54:00+00:00,13.0,7.85,18.0,8.92,13.05,47.59359,-54.27349
2023-10-04 22:04:00+00:00,21.0,7.68,20.0,9.46,13.05,47.59359,-54.27349
2023-10-04 22:14:00+00:00,17.0,8.83,17.0,10.15,12.57,47.59359,-54.27349
2023-10-04 22:24:00+00:00,13.0,8.17,18.0,9.5,12.57,47.59359,-54.27349
2023-10-04 22:34:00+00:00,19.0,6.89,24.0,7.82,12.57,47.59359,-54.27349
2023-10-04 22:44:00+00:00,22.0,7.72,22.0,9.05,12.57,47.59359,-54.27349
2023-10-04 22:54:00+00:00,10.0,6.25,5.0,7.23,12.57,47.59359,-54.27349
2023-10-04 23:04:00+00:00,20.0,6.51,22.0,7.67,12.57,47.59359,-54.27349
2023-10-04 23:14:01+00:00,5.0,6.24,4.0,7.24,12.41,47.59359,-54.27349
2023-10-04 23:24:01+00:00,3.0,6.98,4.0,8.23,12.41,47.59359,-54.27349
2023-10-04 23:34:01+00:00,1.0,6.72,356.0,8.23,12.41,47.59359,-54.27349
2023-10-04 23:44:01+00:00,1.0,6.63,1.0,7.7,12.41,47.59359,-54.27349
2023-10-04 23:54:01+00:00,4.0,6.25,1.0,7.21,12.41,47.59359,-54.27349
